Year,Month,Day,Hour,Minute,Value (Times are PST for temperature in C)
2010,05,06,00,00,6.40
2010,05,06,00,01,6.30
2010,05,06,00,02,6.20
2010,05,06,00,03,6.10
2010,05,06,00,04,6.00
2010,05,06,00,05,5.90
2010,05,06,00,06,5.90
2010,05,06,00,07,5.80
2010,05,06,00,08,5.70
2010,05,06,00,09,5.70
2010,05,06,00,10,5.60
2010,05,06,00,11,5.60
2010,05,06,00,12,5.60
2010,05,06,00,13,5.50
2010,05,06,00,14,5.50
2010,05,06,00,15,5.50
2010,05,06,00,16,5.60
2010,05,06,00,17,5.60
2010,05,06,00,18,5.60
2010,05,06,00,19,5.60
2010,05,06,00,20,5.60
2010,05,06,00,21,5.50
2010,05,06,00,22,5.50
2010,05,06,00,23,5.50
2010,05,06,00,24,5.40
2010,05,06,00,25,5.40
2010,05,06,00,26,5.40
2010,05,06,00,27,5.30
2010,05,06,00,28,5.30
2010,05,06,00,29,5.30
2010,05,06,00,30,5.20
2010,05,06,00,31,5.20
2010,05,06,00,32,5.20
2010,05,06,00,33,5.20
2010,05,06,00,34,5.10
2010,05,06,00,35,5.10
2010,05,06,00,36,5.10
2010,05,06,00,37,5.10
2010,05,06,00,38,5.00
2010,05,06,00,39,5.00
2010,05,06,00,40,5.00
2010,05,06,00,41,5.00
2010,05,06,00,42,5.00
2010,05,06,00,43,5.00
2010,05,06,00,44,5.00
2010,05,06,00,45,5.00
2010,05,06,00,46,5.00
2010,05,06,00,47,5.00
2010,05,06,00,48,4.90
2010,05,06,00,49,4.90
2010,05,06,00,50,4.90
2010,05,06,00,51,4.90
2010,05,06,00,52,4.90
2010,05,06,00,53,4.90
2010,05,06,00,54,4.90
2010,05,06,00,55,4.90
2010,05,06,00,56,4.90
2010,05,06,00,57,4.90
2010,05,06,00,58,4.90
2010,05,06,00,59,4.90
2010,05,06,01,00,4.90
2010,05,06,01,01,4.90
2010,05,06,01,02,4.90
2010,05,06,01,03,4.90
2010,05,06,01,04,4.80
2010,05,06,01,05,4.90
2010,05,06,01,06,5.00
2010,05,06,01,07,5.10
2010,05,06,01,08,5.20
2010,05,06,01,09,5.30
2010,05,06,01,10,5.30
2010,05,06,01,11,5.30
2010,05,06,01,12,5.30
2010,05,06,01,13,5.30
2010,05,06,01,14,5.30
2010,05,06,01,15,5.20
2010,05,06,01,16,5.20
2010,05,06,01,17,5.20
2010,05,06,01,18,5.20
2010,05,06,01,19,5.20
2010,05,06,01,20,5.10
2010,05,06,01,21,5.10
2010,05,06,01,22,5.00
2010,05,06,01,23,4.90
2010,05,06,01,24,4.80
2010,05,06,01,25,4.80
2010,05,06,01,26,4.70
2010,05,06,01,27,4.60
2010,05,06,01,28,4.60
2010,05,06,01,29,4.50
2010,05,06,01,30,4.50
2010,05,06,01,31,4.40
2010,05,06,01,32,4.40
2010,05,06,01,33,4.40
2010,05,06,01,34,4.40
2010,05,06,01,35,4.30
2010,05,06,01,36,4.30
2010,05,06,01,37,4.30
2010,05,06,01,38,4.20
2010,05,06,01,39,4.20
2010,05,06,01,40,4.20
2010,05,06,01,41,4.20
2010,05,06,01,42,4.20
2010,05,06,01,43,4.20
2010,05,06,01,44,4.20
2010,05,06,01,45,4.10
2010,05,06,01,46,4.10
2010,05,06,01,47,4.10
2010,05,06,01,48,4.10
2010,05,06,01,49,4.10
2010,05,06,01,50,4.10
2010,05,06,01,51,4.10
2010,05,06,01,52,4.10
2010,05,06,01,53,4.10
2010,05,06,01,54,4.20
2010,05,06,01,55,4.20
2010,05,06,01,56,4.20
2010,05,06,01,57,4.30
2010,05,06,01,58,4.30
2010,05,06,01,59,4.30
2010,05,06,02,00,4.40
2010,05,06,02,01,4.50
2010,05,06,02,02,4.50
2010,05,06,02,03,4.50
2010,05,06,02,04,4.50
2010,05,06,02,05,4.50
2010,05,06,02,06,4.40
2010,05,06,02,07,4.30
2010,05,06,02,08,4.30
2010,05,06,02,09,4.30
2010,05,06,02,10,4.20
2010,05,06,02,11,4.20
2010,05,06,02,12,4.20
2010,05,06,02,13,4.20
2010,05,06,02,14,4.10
2010,05,06,02,15,4.10
2010,05,06,02,16,4.10
2010,05,06,02,17,4.10
2010,05,06,02,18,4.10
2010,05,06,02,19,4.00
2010,05,06,02,20,4.00
2010,05,06,02,21,4.00
2010,05,06,02,22,4.00
2010,05,06,02,23,3.90
2010,05,06,02,24,3.90
2010,05,06,02,25,3.90
2010,05,06,02,26,3.90
2010,05,06,02,27,3.90
2010,05,06,02,28,3.80
2010,05,06,02,29,3.80
2010,05,06,02,30,3.80
2010,05,06,02,31,3.80
2010,05,06,02,32,3.80
2010,05,06,02,33,3.80
2010,05,06,02,34,3.80
2010,05,06,02,35,3.80
2010,05,06,02,36,3.80
2010,05,06,02,37,3.70
2010,05,06,02,38,3.70
2010,05,06,02,39,3.70
2010,05,06,02,40,3.70
2010,05,06,02,41,3.70
2010,05,06,02,42,3.70
2010,05,06,02,43,3.70
2010,05,06,02,44,3.70
2010,05,06,02,45,3.70
2010,05,06,02,46,3.70
2010,05,06,02,47,3.70
2010,05,06,02,48,3.80
2010,05,06,02,49,3.80
2010,05,06,02,50,3.80
2010,05,06,02,51,3.90
2010,05,06,02,52,4.00
2010,05,06,02,53,4.00
2010,05,06,02,54,4.00
2010,05,06,02,55,3.90
2010,05,06,02,56,3.90
2010,05,06,02,57,3.90
2010,05,06,02,58,3.90
2010,05,06,02,59,3.90
2010,05,06,03,00,3.90
2010,05,06,03,01,3.90
2010,05,06,03,02,3.90
2010,05,06,03,03,3.80
2010,05,06,03,04,3.80
2010,05,06,03,05,3.80
2010,05,06,03,06,3.80
2010,05,06,03,07,3.80
2010,05,06,03,08,3.80
2010,05,06,03,09,3.80
2010,05,06,03,10,3.80
2010,05,06,03,11,3.80
2010,05,06,03,12,3.80
2010,05,06,03,13,3.80
2010,05,06,03,14,3.80
2010,05,06,03,15,3.80
2010,05,06,03,16,3.80
2010,05,06,03,17,3.90
2010,05,06,03,18,3.90
2010,05,06,03,19,3.90
2010,05,06,03,20,3.90
2010,05,06,03,21,3.90
2010,05,06,03,22,3.90
2010,05,06,03,23,3.90
2010,05,06,03,24,3.90
2010,05,06,03,25,4.00
2010,05,06,03,26,4.00
2010,05,06,03,27,4.00
2010,05,06,03,28,4.00
2010,05,06,03,29,4.00
2010,05,06,03,30,4.00
2010,05,06,03,31,4.00
2010,05,06,03,32,4.00
2010,05,06,03,33,4.00
2010,05,06,03,34,4.00
2010,05,06,03,35,4.00
2010,05,06,03,36,4.00
2010,05,06,03,37,4.00
2010,05,06,03,38,4.00
2010,05,06,03,39,4.00
2010,05,06,03,40,4.00
2010,05,06,03,41,3.90
2010,05,06,03,42,3.90
2010,05,06,03,43,4.00
2010,05,06,03,44,4.00
2010,05,06,03,45,4.00
2010,05,06,03,46,4.10
2010,05,06,03,47,4.10
2010,05,06,03,48,4.10
2010,05,06,03,49,4.20
2010,05,06,03,50,4.20
2010,05,06,03,51,4.20
2010,05,06,03,52,4.30
2010,05,06,03,53,4.30
2010,05,06,03,54,4.30
2010,05,06,03,55,4.30
2010,05,06,03,56,4.30
2010,05,06,03,57,4.40
2010,05,06,03,58,4.40
2010,05,06,03,59,4.50
2010,05,06,04,00,4.50
2010,05,06,04,01,4.50
2010,05,06,04,02,4.60
2010,05,06,04,03,4.60
2010,05,06,04,04,4.60
2010,05,06,04,05,4.60
2010,05,06,04,06,4.60
2010,05,06,04,07,4.70
2010,05,06,04,08,4.70
2010,05,06,04,09,4.70
2010,05,06,04,10,4.70
2010,05,06,04,11,4.70
2010,05,06,04,12,4.70
2010,05,06,04,13,4.70
2010,05,06,04,14,4.70
2010,05,06,04,15,4.70
2010,05,06,04,16,4.70
2010,05,06,04,17,4.70
2010,05,06,04,18,4.70
2010,05,06,04,19,4.70
2010,05,06,04,20,4.70
2010,05,06,04,21,4.70
2010,05,06,04,22,4.70
2010,05,06,04,23,4.80
2010,05,06,04,24,4.80
2010,05,06,04,25,4.80
2010,05,06,04,26,4.80
2010,05,06,04,27,4.90
2010,05,06,04,28,4.90
2010,05,06,04,29,4.90
2010,05,06,04,30,4.90
2010,05,06,04,31,4.80
2010,05,06,04,32,4.80
2010,05,06,04,33,4.70
2010,05,06,04,34,4.70
2010,05,06,04,35,4.60
2010,05,06,04,36,4.50
2010,05,06,04,37,4.30
2010,05,06,04,38,4.20
2010,05,06,04,39,4.10
2010,05,06,04,40,4.10
2010,05,06,04,41,4.00
2010,05,06,04,42,3.90
2010,05,06,04,43,3.80
2010,05,06,04,44,3.70
2010,05,06,04,45,3.50
2010,05,06,04,46,3.50
2010,05,06,04,47,3.40
2010,05,06,04,48,3.30
2010,05,06,04,49,3.20
2010,05,06,04,50,3.20
2010,05,06,04,51,3.10
2010,05,06,04,52,3.10
2010,05,06,04,53,3.10
2010,05,06,04,54,3.00
2010,05,06,04,55,3.00
2010,05,06,04,56,2.90
2010,05,06,04,57,2.90
2010,05,06,04,58,2.90
2010,05,06,04,59,2.90
2010,05,06,05,00,2.90
2010,05,06,05,01,2.90
2010,05,06,05,02,2.90
2010,05,06,05,03,2.80
2010,05,06,05,04,2.80
2010,05,06,05,05,2.90
2010,05,06,05,06,2.90
2010,05,06,05,07,2.90
2010,05,06,05,08,2.90
2010,05,06,05,09,2.90
2010,05,06,05,10,2.90
2010,05,06,05,11,3.00
2010,05,06,05,12,3.00
2010,05,06,05,13,2.90
2010,05,06,05,14,2.90
2010,05,06,05,15,2.90
2010,05,06,05,16,2.90
2010,05,06,05,17,2.90
2010,05,06,05,18,3.00
2010,05,06,05,19,3.00
2010,05,06,05,20,3.00
2010,05,06,05,21,3.00
2010,05,06,05,22,3.00
2010,05,06,05,23,3.00
2010,05,06,05,24,3.00
2010,05,06,05,25,3.00
2010,05,06,05,26,3.10
2010,05,06,05,27,3.20
2010,05,06,05,28,3.30
2010,05,06,05,29,3.40
2010,05,06,05,30,3.40
2010,05,06,05,31,3.40
2010,05,06,05,32,3.40
2010,05,06,05,33,3.40
2010,05,06,05,34,3.40
2010,05,06,05,35,3.40
2010,05,06,05,36,3.40
2010,05,06,05,37,3.40
2010,05,06,05,38,3.30
2010,05,06,05,39,3.30
2010,05,06,05,40,3.30
2010,05,06,05,41,3.30
2010,05,06,05,42,3.40
2010,05,06,05,43,3.40
2010,05,06,05,44,3.40
2010,05,06,05,45,3.40
2010,05,06,05,46,3.50
2010,05,06,05,47,3.40
2010,05,06,05,48,3.40
2010,05,06,05,49,3.40
2010,05,06,05,50,3.40
2010,05,06,05,51,3.40
2010,05,06,05,52,3.30
2010,05,06,05,53,3.30
2010,05,06,05,54,3.30
2010,05,06,05,55,3.30
2010,05,06,05,56,3.30
2010,05,06,05,57,3.30
2010,05,06,05,58,3.30
2010,05,06,05,59,3.30
2010,05,06,06,00,3.30
2010,05,06,06,01,3.30
2010,05,06,06,02,3.30
2010,05,06,06,03,3.40
2010,05,06,06,04,3.40
2010,05,06,06,05,3.40
2010,05,06,06,06,3.40
2010,05,06,06,07,3.40
2010,05,06,06,08,3.40
2010,05,06,06,09,3.40
2010,05,06,06,10,3.40
2010,05,06,06,11,3.40
2010,05,06,06,12,3.40
2010,05,06,06,13,3.40
2010,05,06,06,14,3.40
2010,05,06,06,15,3.40
2010,05,06,06,16,3.40
2010,05,06,06,17,3.40
2010,05,06,06,18,3.40
2010,05,06,06,19,3.40
2010,05,06,06,20,3.50
2010,05,06,06,21,3.60
2010,05,06,06,22,3.60
2010,05,06,06,23,3.70
2010,05,06,06,24,3.70
2010,05,06,06,25,3.80
2010,05,06,06,26,3.80
2010,05,06,06,27,3.80
2010,05,06,06,28,3.70
2010,05,06,06,29,3.70
2010,05,06,06,30,3.70
2010,05,06,06,31,3.70
2010,05,06,06,32,3.60
2010,05,06,06,33,3.60
2010,05,06,06,34,3.60
2010,05,06,06,35,3.60
2010,05,06,06,36,3.60
2010,05,06,06,37,3.60
2010,05,06,06,38,3.70
2010,05,06,06,39,3.80
2010,05,06,06,40,3.80
2010,05,06,06,41,3.90
2010,05,06,06,42,3.90
2010,05,06,06,43,4.00
2010,05,06,06,44,4.00
2010,05,06,06,45,4.10
2010,05,06,06,46,4.20
2010,05,06,06,47,4.30
2010,05,06,06,48,4.30
2010,05,06,06,49,4.30
2010,05,06,06,50,4.40
2010,05,06,06,51,4.50
2010,05,06,06,52,4.60
2010,05,06,06,53,4.60
2010,05,06,06,54,4.70
2010,05,06,06,55,4.80
2010,05,06,06,56,4.90
2010,05,06,06,57,5.00
2010,05,06,06,58,5.00
2010,05,06,06,59,5.10
2010,05,06,07,00,5.10
2010,05,06,07,01,5.20
2010,05,06,07,02,5.20
2010,05,06,07,03,5.30
2010,05,06,07,04,5.40
2010,05,06,07,05,5.40
2010,05,06,07,06,5.50
2010,05,06,07,07,5.60
2010,05,06,07,08,5.70
2010,05,06,07,09,5.80
2010,05,06,07,10,5.90
2010,05,06,07,11,6.00
2010,05,06,07,12,6.10
2010,05,06,07,13,6.20
2010,05,06,07,14,6.20
2010,05,06,07,15,6.30
2010,05,06,07,16,6.40
2010,05,06,07,17,6.50
2010,05,06,07,18,6.60
2010,05,06,07,19,6.70
2010,05,06,07,20,6.80
2010,05,06,07,21,6.90
2010,05,06,07,22,7.00
2010,05,06,07,23,7.00
2010,05,06,07,24,7.20
2010,05,06,07,25,7.20
2010,05,06,07,26,7.30
2010,05,06,07,27,7.40
2010,05,06,07,28,7.50
2010,05,06,07,29,7.60
2010,05,06,07,30,7.70
2010,05,06,07,31,7.80
2010,05,06,07,32,7.90
2010,05,06,07,33,7.90
2010,05,06,07,34,8.00
2010,05,06,07,35,8.00
2010,05,06,07,36,8.10
2010,05,06,07,37,8.10
2010,05,06,07,38,8.20
2010,05,06,07,39,8.20
2010,05,06,07,40,8.30
2010,05,06,07,41,8.30
2010,05,06,07,42,8.40
2010,05,06,07,43,8.40
2010,05,06,07,44,8.40
2010,05,06,07,45,8.40
2010,05,06,07,46,8.40
2010,05,06,07,47,8.40
2010,05,06,07,48,8.50
2010,05,06,07,49,8.60
2010,05,06,07,50,8.60
2010,05,06,07,51,8.60
2010,05,06,07,52,8.70
2010,05,06,07,53,8.70
2010,05,06,07,54,8.80
2010,05,06,07,55,8.80
2010,05,06,07,56,8.80
2010,05,06,07,57,8.90
2010,05,06,07,58,8.90
2010,05,06,07,59,8.90
2010,05,06,08,00,9.00
2010,05,06,08,01,9.00
2010,05,06,08,02,9.00
2010,05,06,08,03,9.10
2010,05,06,08,04,9.10
2010,05,06,08,05,9.20
2010,05,06,08,06,9.20
2010,05,06,08,07,9.30
2010,05,06,08,08,9.40
2010,05,06,08,09,9.50
2010,05,06,08,10,9.60
2010,05,06,08,11,9.60
2010,05,06,08,12,9.70
2010,05,06,08,13,9.80
2010,05,06,08,14,9.80
2010,05,06,08,15,9.80
2010,05,06,08,16,9.90
2010,05,06,08,17,9.90
2010,05,06,08,18,9.90
2010,05,06,08,19,10.00
2010,05,06,08,20,10.10
2010,05,06,08,21,10.00
2010,05,06,08,22,10.00
2010,05,06,08,23,9.90
2010,05,06,08,24,9.90
2010,05,06,08,25,9.80
2010,05,06,08,26,9.80
2010,05,06,08,27,9.80
2010,05,06,08,28,9.70
2010,05,06,08,29,9.80
2010,05,06,08,30,9.80
2010,05,06,08,31,9.90
2010,05,06,08,32,9.90
2010,05,06,08,33,10.00
2010,05,06,08,34,10.10
2010,05,06,08,35,10.10
2010,05,06,08,36,10.20
2010,05,06,08,37,10.20
2010,05,06,08,38,10.20
2010,05,06,08,39,10.20
2010,05,06,08,40,10.30
2010,05,06,08,41,10.20
2010,05,06,08,42,10.20
2010,05,06,08,43,10.30
2010,05,06,08,44,10.30
2010,05,06,08,45,10.40
2010,05,06,08,46,10.50
2010,05,06,08,47,10.60
2010,05,06,08,48,10.60
2010,05,06,08,49,10.60
2010,05,06,08,50,10.60
2010,05,06,08,51,10.60
2010,05,06,08,52,10.60
2010,05,06,08,53,10.70
2010,05,06,08,54,10.80
2010,05,06,08,55,10.70
2010,05,06,08,56,10.80
2010,05,06,08,57,10.80
2010,05,06,08,58,10.70
2010,05,06,08,59,10.70
2010,05,06,09,00,10.60
2010,05,06,09,01,10.50
2010,05,06,09,02,10.40
2010,05,06,09,03,10.40
2010,05,06,09,04,10.30
2010,05,06,09,05,10.30
2010,05,06,09,06,10.20
2010,05,06,09,07,10.20
2010,05,06,09,08,10.20
2010,05,06,09,09,10.20
2010,05,06,09,10,10.20
2010,05,06,09,11,10.20
2010,05,06,09,12,10.20
2010,05,06,09,13,10.30
2010,05,06,09,14,10.30
2010,05,06,09,15,10.30
2010,05,06,09,16,10.30
2010,05,06,09,17,10.30
2010,05,06,09,18,10.30
2010,05,06,09,19,10.20
2010,05,06,09,20,10.20
2010,05,06,09,21,10.20
2010,05,06,09,22,10.20
2010,05,06,09,23,10.20
2010,05,06,09,24,10.30
2010,05,06,09,25,10.40
2010,05,06,09,26,10.50
2010,05,06,09,27,10.50
2010,05,06,09,28,10.50
2010,05,06,09,29,10.40
2010,05,06,09,30,10.40
2010,05,06,09,31,10.40
2010,05,06,09,32,10.50
2010,05,06,09,33,10.60
2010,05,06,09,34,10.70
2010,05,06,09,35,10.70
2010,05,06,09,36,10.80
2010,05,06,09,37,10.90
2010,05,06,09,38,11.10
2010,05,06,09,39,11.20
2010,05,06,09,40,11.30
2010,05,06,09,41,11.30
2010,05,06,09,42,11.30
2010,05,06,09,43,11.30
2010,05,06,09,44,11.20
2010,05,06,09,45,11.10
2010,05,06,09,46,11.10
2010,05,06,09,47,11.20
2010,05,06,09,48,11.30
2010,05,06,09,49,11.40
2010,05,06,09,50,11.50
2010,05,06,09,51,11.60
2010,05,06,09,52,11.60
2010,05,06,09,53,11.60
2010,05,06,09,54,11.60
2010,05,06,09,55,11.50
2010,05,06,09,56,11.40
2010,05,06,09,57,11.30
2010,05,06,09,58,11.30
2010,05,06,09,59,11.30
2010,05,06,10,00,11.40
2010,05,06,10,01,11.30
2010,05,06,10,02,11.30
2010,05,06,10,03,11.30
2010,05,06,10,04,11.30
2010,05,06,10,05,11.40
2010,05,06,10,06,11.40
2010,05,06,10,07,11.50
2010,05,06,10,08,11.60
2010,05,06,10,09,11.80
2010,05,06,10,10,11.80
2010,05,06,10,11,11.80
2010,05,06,10,12,11.80
2010,05,06,10,13,11.90
2010,05,06,10,14,12.00
2010,05,06,10,15,12.10
2010,05,06,10,16,12.10
2010,05,06,10,17,12.10
2010,05,06,10,18,12.10
2010,05,06,10,19,12.10
2010,05,06,10,20,12.00
2010,05,06,10,21,12.00
2010,05,06,10,22,12.00
2010,05,06,10,23,12.00
2010,05,06,10,24,12.10
2010,05,06,10,25,12.10
2010,05,06,10,26,12.20
2010,05,06,10,27,12.20
2010,05,06,10,28,12.30
2010,05,06,10,29,12.30
2010,05,06,10,30,12.30
2010,05,06,10,31,12.30
2010,05,06,10,32,12.30
2010,05,06,10,33,12.30
2010,05,06,10,34,12.30
2010,05,06,10,35,12.20
2010,05,06,10,36,12.20
2010,05,06,10,37,12.20
2010,05,06,10,38,12.20
2010,05,06,10,39,12.20
2010,05,06,10,40,12.10
2010,05,06,10,41,12.00
2010,05,06,10,42,11.90
2010,05,06,10,43,11.80
2010,05,06,10,44,11.80
2010,05,06,10,45,11.90
2010,05,06,10,46,11.90
2010,05,06,10,47,12.00
2010,05,06,10,48,12.10
2010,05,06,10,49,12.00
2010,05,06,10,50,12.00
2010,05,06,10,51,12.00
2010,05,06,10,52,12.00
2010,05,06,10,53,12.10
2010,05,06,10,54,12.00
2010,05,06,10,55,11.90
2010,05,06,10,56,11.80
2010,05,06,10,57,11.70
2010,05,06,10,58,11.50
2010,05,06,10,59,11.40
2010,05,06,11,00,11.30
2010,05,06,11,01,11.20
2010,05,06,11,02,11.20
2010,05,06,11,03,11.30
2010,05,06,11,04,11.30
2010,05,06,11,05,11.30
2010,05,06,11,06,11.30
2010,05,06,11,07,11.30
2010,05,06,11,08,11.40
2010,05,06,11,09,11.40
2010,05,06,11,10,11.30
2010,05,06,11,11,11.30
2010,05,06,11,12,11.40
2010,05,06,11,13,11.40
2010,05,06,11,14,11.40
2010,05,06,11,15,11.40
2010,05,06,11,16,11.40
2010,05,06,11,17,11.40
2010,05,06,11,18,11.40
2010,05,06,11,19,11.40
2010,05,06,11,20,11.40
2010,05,06,11,21,11.40
2010,05,06,11,22,11.40
2010,05,06,11,23,11.40
2010,05,06,11,24,11.40
2010,05,06,11,25,11.40
2010,05,06,11,26,11.40
2010,05,06,11,27,11.30
2010,05,06,11,28,11.30
2010,05,06,11,29,11.20
2010,05,06,11,30,11.20
2010,05,06,11,31,11.20
2010,05,06,11,32,11.10
2010,05,06,11,33,11.20
2010,05,06,11,34,11.20
2010,05,06,11,35,11.20
2010,05,06,11,36,11.30
2010,05,06,11,37,11.50
2010,05,06,11,38,11.60
2010,05,06,11,39,11.70
2010,05,06,11,40,11.80
2010,05,06,11,41,12.00
2010,05,06,11,42,12.00
2010,05,06,11,43,12.10
2010,05,06,11,44,12.10
2010,05,06,11,45,12.00
2010,05,06,11,46,12.00
2010,05,06,11,47,12.00
2010,05,06,11,48,11.90
2010,05,06,11,49,11.80
2010,05,06,11,50,11.70
2010,05,06,11,51,11.80
2010,05,06,11,52,11.80
2010,05,06,11,53,11.80
2010,05,06,11,54,12.00
2010,05,06,11,55,12.10
2010,05,06,11,56,12.00
2010,05,06,11,57,12.00
2010,05,06,11,58,12.00
2010,05,06,11,59,12.10
2010,05,06,12,00,12.20
2010,05,06,12,01,12.20
2010,05,06,12,02,12.20
2010,05,06,12,03,12.10
2010,05,06,12,04,12.20
2010,05,06,12,05,12.30
2010,05,06,12,06,12.30
2010,05,06,12,07,12.40
2010,05,06,12,08,12.40
2010,05,06,12,09,12.50
2010,05,06,12,10,12.60
2010,05,06,12,11,12.60
2010,05,06,12,12,12.60
2010,05,06,12,13,12.60
2010,05,06,12,14,12.60
2010,05,06,12,15,12.40
2010,05,06,12,16,12.30
2010,05,06,12,17,12.10
2010,05,06,12,18,12.10
2010,05,06,12,19,12.00
2010,05,06,12,20,11.90
2010,05,06,12,21,11.90
2010,05,06,12,22,11.80
2010,05,06,12,23,11.70
2010,05,06,12,24,11.70
2010,05,06,12,25,11.60
2010,05,06,12,26,11.60
2010,05,06,12,27,11.50
2010,05,06,12,28,11.50
2010,05,06,12,29,11.50
2010,05,06,12,30,11.50
2010,05,06,12,31,11.40
2010,05,06,12,32,11.40
2010,05,06,12,33,11.40
2010,05,06,12,34,11.40
2010,05,06,12,35,11.40
2010,05,06,12,36,11.40
2010,05,06,12,37,11.30
2010,05,06,12,38,11.30
2010,05,06,12,39,11.30
2010,05,06,12,40,11.40
2010,05,06,12,41,11.40
2010,05,06,12,42,11.30
2010,05,06,12,43,11.30
2010,05,06,12,44,11.30
2010,05,06,12,45,11.30
2010,05,06,12,46,11.20
2010,05,06,12,47,11.30
2010,05,06,12,48,11.20
2010,05,06,12,49,11.20
2010,05,06,12,50,11.10
2010,05,06,12,51,11.10
2010,05,06,12,52,11.10
2010,05,06,12,53,11.10
2010,05,06,12,54,11.10
2010,05,06,12,55,11.10
2010,05,06,12,56,11.20
2010,05,06,12,57,11.20
2010,05,06,12,58,11.20
2010,05,06,12,59,11.20
2010,05,06,13,00,11.10
2010,05,06,13,01,11.10
2010,05,06,13,02,11.00
2010,05,06,13,03,11.00
2010,05,06,13,04,10.90
2010,05,06,13,05,10.90
2010,05,06,13,06,10.90
2010,05,06,13,07,10.90
2010,05,06,13,08,10.90
2010,05,06,13,09,10.90
2010,05,06,13,10,10.90
2010,05,06,13,11,10.90
2010,05,06,13,12,10.90
2010,05,06,13,13,10.90
2010,05,06,13,14,10.90
2010,05,06,13,15,10.90
2010,05,06,13,16,10.90
2010,05,06,13,17,10.80
2010,05,06,13,18,10.80
2010,05,06,13,19,10.80
2010,05,06,13,20,10.80
2010,05,06,13,21,10.80
2010,05,06,13,22,10.80
2010,05,06,13,23,10.80
2010,05,06,13,24,10.80
2010,05,06,13,25,10.80
2010,05,06,13,26,10.80
2010,05,06,13,27,10.80
2010,05,06,13,28,10.80
2010,05,06,13,29,10.80
2010,05,06,13,30,10.80
2010,05,06,13,31,10.80
2010,05,06,13,32,10.80
2010,05,06,13,33,10.80
2010,05,06,13,34,10.80
2010,05,06,13,35,10.80
2010,05,06,13,36,10.80
2010,05,06,13,37,10.80
2010,05,06,13,38,10.80
2010,05,06,13,39,10.80
2010,05,06,13,40,10.80
2010,05,06,13,41,10.80
2010,05,06,13,42,10.80
2010,05,06,13,43,10.80
2010,05,06,13,44,10.80
2010,05,06,13,45,10.80
2010,05,06,13,46,10.70
2010,05,06,13,47,10.70
2010,05,06,13,48,10.60
2010,05,06,13,49,10.60
2010,05,06,13,50,10.50
2010,05,06,13,51,10.50
2010,05,06,13,52,10.50
2010,05,06,13,53,10.50
2010,05,06,13,54,10.40
2010,05,06,13,55,10.40
2010,05,06,13,56,10.40
2010,05,06,13,57,10.40
2010,05,06,13,58,10.30
2010,05,06,13,59,10.30
2010,05,06,14,00,10.30
2010,05,06,14,01,10.20
2010,05,06,14,02,10.10
2010,05,06,14,03,10.00
2010,05,06,14,04,10.00
2010,05,06,14,05,10.00
2010,05,06,14,06,10.00
2010,05,06,14,07,9.90
2010,05,06,14,08,9.90
2010,05,06,14,09,9.90
2010,05,06,14,10,9.90
2010,05,06,14,11,9.90
2010,05,06,14,12,9.90
2010,05,06,14,13,9.80
2010,05,06,14,14,9.80
2010,05,06,14,15,9.80
2010,05,06,14,16,9.80
2010,05,06,14,17,9.80
2010,05,06,14,18,9.80
2010,05,06,14,19,9.80
2010,05,06,14,20,9.80
2010,05,06,14,21,9.90
2010,05,06,14,22,9.90
2010,05,06,14,23,9.90
2010,05,06,14,24,10.00
2010,05,06,14,25,10.00
2010,05,06,14,26,10.00
2010,05,06,14,27,10.10
2010,05,06,14,28,10.10
2010,05,06,14,29,10.20
2010,05,06,14,30,10.20
2010,05,06,14,31,10.20
2010,05,06,14,32,10.20
2010,05,06,14,33,10.30
2010,05,06,14,34,10.30
2010,05,06,14,35,10.30
2010,05,06,14,36,10.40
2010,05,06,14,37,10.50
2010,05,06,14,38,10.60
2010,05,06,14,39,10.60
2010,05,06,14,40,10.70
2010,05,06,14,41,10.80
2010,05,06,14,42,10.80
2010,05,06,14,43,11.00
2010,05,06,14,44,11.10
2010,05,06,14,45,11.20
2010,05,06,14,46,11.20
2010,05,06,14,47,11.30
2010,05,06,14,48,11.30
2010,05,06,14,49,11.40
2010,05,06,14,50,11.60
2010,05,06,14,51,11.60
2010,05,06,14,52,11.60
2010,05,06,14,53,11.70
2010,05,06,14,54,11.70
2010,05,06,14,55,11.80
2010,05,06,14,56,11.80
2010,05,06,14,57,11.80
2010,05,06,14,58,11.80
2010,05,06,14,59,11.80
2010,05,06,15,00,11.80
2010,05,06,15,01,11.80
2010,05,06,15,02,11.70
2010,05,06,15,03,11.60
2010,05,06,15,04,11.50
2010,05,06,15,05,11.40
2010,05,06,15,06,11.40
2010,05,06,15,07,11.30
2010,05,06,15,08,11.30
2010,05,06,15,09,11.30
2010,05,06,15,10,11.30
2010,05,06,15,11,11.30
2010,05,06,15,12,11.30
2010,05,06,15,13,11.40
2010,05,06,15,14,11.40
2010,05,06,15,15,11.50
2010,05,06,15,16,11.60
2010,05,06,15,17,11.60
2010,05,06,15,18,11.60
2010,05,06,15,19,11.60
2010,05,06,15,20,11.50
2010,05,06,15,21,11.60
2010,05,06,15,22,11.60
2010,05,06,15,23,11.60
2010,05,06,15,24,11.60
2010,05,06,15,25,11.50
2010,05,06,15,26,11.40
2010,05,06,15,27,11.40
2010,05,06,15,28,11.30
2010,05,06,15,29,11.30
2010,05,06,15,30,11.30
2010,05,06,15,31,11.40
2010,05,06,15,32,11.40
2010,05,06,15,33,11.50
2010,05,06,15,34,11.50
2010,05,06,15,35,11.60
2010,05,06,15,36,11.60
2010,05,06,15,37,11.60
2010,05,06,15,38,11.60
2010,05,06,15,39,11.60
2010,05,06,15,40,11.70
2010,05,06,15,41,11.70
2010,05,06,15,42,11.70
2010,05,06,15,43,11.70
2010,05,06,15,44,11.70
2010,05,06,15,45,11.70
2010,05,06,15,46,11.70
2010,05,06,15,47,11.70
2010,05,06,15,48,11.70
2010,05,06,15,49,11.80
2010,05,06,15,50,11.90
2010,05,06,15,51,12.00
2010,05,06,15,52,12.10
2010,05,06,15,53,12.20
2010,05,06,15,54,12.30
2010,05,06,15,55,12.30
2010,05,06,15,56,12.50
2010,05,06,15,57,12.50
2010,05,06,15,58,12.60
2010,05,06,15,59,12.80
2010,05,06,16,00,12.90
2010,05,06,16,01,12.90
2010,05,06,16,02,12.90
2010,05,06,16,03,13.00
2010,05,06,16,04,13.10
2010,05,06,16,05,13.10
2010,05,06,16,06,13.10
2010,05,06,16,07,13.10
2010,05,06,16,08,13.20
2010,05,06,16,09,13.30
2010,05,06,16,10,13.40
2010,05,06,16,11,13.50
2010,05,06,16,12,13.60
2010,05,06,16,13,13.70
2010,05,06,16,14,13.80
2010,05,06,16,15,13.70
2010,05,06,16,16,13.70
2010,05,06,16,17,13.60
2010,05,06,16,18,13.50
2010,05,06,16,19,13.40
2010,05,06,16,20,13.30
2010,05,06,16,21,13.30
2010,05,06,16,22,13.20
2010,05,06,16,23,13.10
2010,05,06,16,24,13.10
2010,05,06,16,25,13.00
2010,05,06,16,26,12.90
2010,05,06,16,27,12.80
2010,05,06,16,28,12.80
2010,05,06,16,29,12.70
2010,05,06,16,30,12.70
2010,05,06,16,31,12.70
2010,05,06,16,32,12.60
2010,05,06,16,33,12.60
2010,05,06,16,34,12.60
2010,05,06,16,35,12.60
2010,05,06,16,36,12.60
2010,05,06,16,37,12.50
2010,05,06,16,38,12.40
2010,05,06,16,39,12.30
2010,05,06,16,40,12.30
2010,05,06,16,41,12.20
2010,05,06,16,42,12.20
2010,05,06,16,43,12.20
2010,05,06,16,44,12.20
2010,05,06,16,45,12.20
2010,05,06,16,46,12.20
2010,05,06,16,47,12.20
2010,05,06,16,48,12.20
2010,05,06,16,49,12.20
2010,05,06,16,50,12.20
2010,05,06,16,51,12.20
2010,05,06,16,52,12.30
2010,05,06,16,53,12.30
2010,05,06,16,54,12.30
2010,05,06,16,55,12.40
2010,05,06,16,56,12.40
2010,05,06,16,57,12.40
2010,05,06,16,58,12.30
2010,05,06,16,59,12.30
2010,05,06,17,00,12.30
2010,05,06,17,01,12.30
2010,05,06,17,02,12.20
2010,05,06,17,03,12.20
2010,05,06,17,04,12.10
2010,05,06,17,05,12.10
2010,05,06,17,06,12.00
2010,05,06,17,07,11.90
2010,05,06,17,08,11.80
2010,05,06,17,09,11.80
2010,05,06,17,10,11.70
2010,05,06,17,11,11.60
2010,05,06,17,12,11.60
2010,05,06,17,13,11.50
2010,05,06,17,14,11.50
2010,05,06,17,15,11.50
2010,05,06,17,16,11.40
2010,05,06,17,17,11.40
2010,05,06,17,18,11.40
2010,05,06,17,19,11.30
2010,05,06,17,20,11.30
2010,05,06,17,21,11.30
2010,05,06,17,22,11.30
2010,05,06,17,23,11.30
2010,05,06,17,24,11.20
2010,05,06,17,25,11.20
2010,05,06,17,26,11.20
2010,05,06,17,27,11.20
2010,05,06,17,28,11.20
2010,05,06,17,29,11.20
2010,05,06,17,30,11.20
2010,05,06,17,31,11.20
2010,05,06,17,32,11.20
2010,05,06,17,33,11.20
2010,05,06,17,34,11.20
2010,05,06,17,35,11.20
2010,05,06,17,36,11.20
2010,05,06,17,37,11.20
2010,05,06,17,38,11.10
2010,05,06,17,39,11.10
2010,05,06,17,40,11.10
2010,05,06,17,41,11.10
2010,05,06,17,42,11.10